Probability
5 6 7 7 5 4 3 4 2 1 0 0 0 0 0 0 0 0 0 0 0 0 0 0 0 0 0 0 0 0 0 0 0 0 0 0 0 0 0 0 0 0 0
4 4 5 5 3 2 3 3 2 1 0 0 0 0 0 0 0 0 0 0 0 0 0 0 0 0 0 0 0 0 0 0 0 0 0 0 0 0 0 0 0 0 0
3 2 2 2 1 1 2 1 1 0 0 0 0 0 0 0 0 0 0 0 0 0 0 0 0 0 0 0 0 0 0 0 0 0 0 0 0 0 0 0 0 0 0
2 1 0 0 0 0 0 0 0 0 0 0 0 0 0 0 0 0 0 0 0 0 0 0 0 0 0 0 0 0 0 0 0 0 0 0 0 0 0 0 0 0 0
1 0 0 0 0 0 0 0 0 0 0 0 0 0 0 0 0 0 0 0 0 0 0 0 0 0 0 0 0 0 0 0 0 0 0 0 0 0 0 0 0 0 0
1 0 0 0 0 0 0 0 0 0 0 0 0 0 0 0 0 0 0 0 0 0 0 0 0 0 0 0 0 0 0 0 0 0 0 0 0 0 0 0 0 0 0
1 0 0 0 0 0 0 0 0 0 0 0 0 0 0 0 0 0 0 0 0 0 0 0 0 0 0 0 0 0 0 0 0 0 0 0 0 0 0 0 0 0 0
0 0 0 0 1 1 0 0 0 0 0 0 0 0 0 0 0 0 0 0 0 0 0 0 0 0 0 0 0 0 0 0 0 0 0 0 0 0 0 0 0 0 0
0 0 0 1 2 2 1 0 0 0 0 0 0 0 0 0 0 0 0 0 0 0 0 0 0 0 0 0 0 0 0 0 0 0 0 0 0 0 0 0 0 0 0
0 0 1 2 2 2 1 0 0 1 1 0 0 0 0 0 0 0 0 0 0 0 0 0 0 0 0 0 0 0 0 0 0 0 0 0 0 0 0 0 0 0 0
0 0 1 1 1 1 1 1 1 2 1 0 0 0 0 0 0 0 0 0 0 0 0 0 0 0 0 0 0 0 0 0 0 0 0 0 0 0 0 0 0 0 0
0 0 0 0 0 1 2 2 2 2 1 0 0 0 0 0 0 0 0 0 0 0 0 0 0 0 0 0 0 0 0 0 0 0 0 0 0 0 0 0 0 0 0
0 0 0 0 0 1 2 3 3 1 0 0 0 0 0 0 0 0 0 0 0 0 0 0 0 0 0 0 0 0 0 0 0 0 0 0 0 0 0 0 0 0 0
0 0 0 0 0 0 1 2 2 1 0 0 0 0 0 0 0 0 0 0 0 0 0 0 0 0 0 0 0 0 0 0 0 0 0 0 0 0 0 0 0 0 0
0 0 0 0 0 0 0 1 1 0 0 0 0 0 0 0 0 0 0 0 0 0 0 0 0 0 0 0 0 0 0 0 0 0 0 0 0 0 0 0 0 0 0
0 0 0 0 0 0 0 0 0 0 0 0 0 0 0 0 0 0 0 0 0 0 0 0 0 0 0 0 0 0 0 0 0 0 0 0 0 0 0 0 0 0 0
0 0 0 0 0 0 0 0 0 0 0 0 0 0 0 0 0 0 0 0 0 0 0 0 0 0 0 0 0 0 0 0 0 0 0 0 0 0 0 0 0 0 0
0 0 0 0 0 0 0 0 0 0 0 0 0 0 0 0 0 0 0 0 0 0 0 0 0 0 0 0 0 0 0 0 0 0 0 0 0 0 0 0 0 0 0
0 0 0 0 0 0 0 0 0 0 0 0 0 0 0 0 0 0 0 0 0 0 0 0 0 0 0 0 0 0 0 0 0 0 0 0 0 0 0 0 0 0 0
0 0 0 0 0 0 0 0 0 0 0 0 0 0 0 0 0 0 0 0 0 0 0 0 0 0 0 0 0 0 0 0 0 0 0 0 0 0 0 0 0 0 0
0 0 0 0 0 0 0 0 0 0 0 0 0 0 0 0 0 0 0 0 0 0 0 0 0 0 0 0 0 0 0 0 0 0 0 0 0 0 0 0 0 0 0
1 0 0 0 0 0 0 0 0 0 0 0 0 0 0 0 0 0 0 0 0 0 0 0 0 0 0 0 0 0 0 0 0 0 0 0 0 0 0 0 0 0 0
1 0 0 0 0 0 0 0 0 0 0 0 0 0 0 0 0 0 0 0 0 0 0 0 0 0 0 0 0 0 0 0 0 0 0 0 0 0 0 0 0 0 0
1 0 0 0 0 0 0 0 0 0 0 0 0 0 0 0 0 0 0 0 0 0 0 0 0 0 0 0 0 0 0 0 0 0 0 0 0 0 0 0 0 0 0
0 0 0 0 0 0 0 0 0 0 0 0 0 0 0 0 0 0 0 0 0 0 0 0 0 0 0 0 0 0 0 0 0 0 0 0 0 0 0 0 0 0 0
0 0 0 0 0 0 0 0 0 0 0 0 0 0 0 0 0 0 0 0 0 0 0 0 0 0 0 0 0 0 0 0 0 0 0 0 0 0 0 0 0 0 0
Wind_Speed
6 7 8 9 8 7 7 7 6 5 4 3 3 3 2 2 2 2 3 4 3 4 4 3 3 3 3 3 3 2 3 3 3 3 4 4 3 3 2 3 2 2 3
7 9 8 8 8 8 7 7 7 6 5 3 3 2 2 2 2 2 2 3 3 4 4 3 2 3 3 4 4 3 2 3 3 2 2 4 6 4 4 3 3 2 2
12 11 10 9 8 8 8 8 7 6 5 4 3 3 3 3 2 1 1 2 3 3 3 4 3 3 2 2 2 2 3 2 3 2 2 2 2 4 4 4 4 4 3
10 10 11 10 10 9 8 7 7 6 5 5 5 4 3 2 1 2 1 1 2 2 3 4 3 3 2 2 1 2 1 2 2 2 1 1 2 1 4 4 4 5 4
12 13 13 13 11 10 9 7 7 6 6 6 6 6 4 3 2 1 1 0 1 1 3 4 3 2 1 1 1 1 1 1 0 1 1 2 1 1 1 3 5 5 4
12 12 12 10 9 9 9 8 8 7 6 6 6 7 6 5 3 2 1 1 1 1 2 4 3 3 2 1 1 0 0 0 0 1 1 0 0 1 0 2 3 4 4
12 11 11 11 10 10 10 9 9 7 7 7 6 7 7 6 4 3 2 1 0 0 2 2 2 2 2 2 2 1 1 1 1 2 2 2 2 2 2 2 2 3 4
12 13 13 12 12 12 11 10 10 8 8 7 7 6 6 4 3 4 3 3 2 2 3 3 3 2 2 2 2 1 2 2 2 3 2 2 2 2 2 2 1 2 3
13 13 12 12 12 12 12 12 11 9 8 8 7 6 6 5 5 4 3 3 3 3 3 3 2 2 3 3 3 2 3 3 3 3 3 3 3 2 2 2 3 2 2
12 12 12 13 12 11 10 10 11 10 8 8 7 6 6 6 5 4 4 4 3 3 3 2 2 3 3 3 3 3 4 4 4 3 4 3 3 3 3 2 2 3 3
14 13 12 11 11 10 10 10 10 8 8 8 7 7 6 6 5 5 5 4 4 4 4 3 3 4 4 4 4 4 5 5 5 4 4 5 4 3 3 3 2 2 3
13 12 12 11 10 11 11 11 10 10 9 8 7 7 7 6 6 5 5 5 5 5 5 4 4 4 4 4 4 5 5 5 5 5 5 5 4 4 4 3 4 4 4
10 10 11 12 12 12 12 11 11 10 9 8 8 7 7 6 6 6 6 5 5 5 5 4 5 5 5 5 5 5 5 5 6 6 6 6 5 5 4 4 4 4 4
11 11 11 11 12 12 12 11 10 10 9 8 8 8 8 8 7 7 6 6 6 6 5 5 5 5 5 5 5 5 5 5 5 5 5 6 6 6 6 5 6 5 4
11 13 13 11 10 10 10 10 10 9 9 9 9 9 8 7 7 6 6 6 6 7 6 5 5 5 5 5 5 5 5 5 5 5 5 6 8 10 8 6 6 5 4
13 13 13 12 13 13 12 11 10 10 9 10 10 8 7 7 7 7 7 6 6 6 5 6 6 6 5 7 9 7 5 5 5 6 6 6 8 10 11 11 10 9 7
11 13 14 15 15 14 14 13 12 9 9 10 9 8 8 8 8 8 7 7 7 6 6 6 6 6 8 10 11 11 6 6 6 6 6 6 7 7 6 8 10 9 11
9 10 11 11 11 11 11 11 10 10 10 10 9 9 9 9 8 7 7 7 6 6 6 6 6 6 8 11 12 13 8 6 7 7 7 7 7 8 8 7 7 7 7
7 8 10 9 9 10 10 9 9 9 9 10 10 10 9 9 8 8 8 7 6 6 6 5 7 7 8 11 13 12 5 6 8 8 7 7 8 11 12 7 7 8 7
2 3 4 5 6 8 8 9 9 9 11 11 10 9 9 9 9 9 8 6 6 7 6 7 7 8 8 11 13 12 5 6 7 6 7 10 10 11 10 6 6 7 8
3 1 2 3 5 5 7 9 9 11 11 8 7 8 8 9 9 8 6 6 6 6 6 7 7 7 9 11 14 13 7 7 7 6 6 6 10 11 10 8 6 10 8
8 5 3 1 1 2 6 7 8 8 5 6 7 7 7 7 6 6 6 6 6 6 7 7 7 7 8 10 11 14 14 12 8 7 6 7 10 11 10 7 9 13 9
9 7 5 5 5 4 1 3 4 2 3 4 5 5 5 5 5 6 6 5 5 6 6 6 7 7 6 7 13 14 14 15 9 7 10 10 10 9 8 12 14 11 6
8 7 8 8 6 6 4 2 3 2 1 2 2 2 3 4 4 4 5 5 5 6 7 7 8 7 6 6 6 5 6 9 8 7 7 10 11 9 10 10 8 7 6
7 7 7 7 7 6 7 6 5 4 3 2 2 2 3 3 4 4 5 7 7 8 9 8 8 8 8 10 12 8 6 6 5 4 2 2 3 4 5 5 6 6 5
6 7 8 8 7 7 7 7 5 4 4 3 3 3 3 3 4 5 7 10 12 15 16 17 14 10 13 13 13 15 12 10 9 5 3 5 5 6 7 7 6 6 6
Wind_Direction
188 163 155 153 146 145 141 141 138 143 131 115 112 112 119 126 141 159 148 141 126 104 97 84 61 52 48 28 16 16 11 358 358 12 340 326 325 328 315 307 283 253 236
169 167 167 164 162 160 156 151 152 151 143 138 143 147 141 134 143 148 141 153 140 132 127 114 96 68 51 31 28 34 25 355 17 38 17 349 342 339 344 350 9 348 318
175 174 169 170 168 168 170 167 165 157 153 145 119 88 70 58 60 90 151 190 168 156 143 136 122 93 78 50 35 49 64 13 351 36 88 60 318 315 326 352 7 359 351
177 177 175 179 182 180 177 171 167 162 157 142 130 129 129 133 166 175 194 224 201 185 166 147 133 115 97 72 37 74 75 72 6 352 29 171 198 271 321 326 344 347 349
181 182 183 186 187 181 178 173 164 164 161 149 140 131 133 151 156 129 138 272 306 242 170 147 139 132 121 116 78 57 55 88 119 326 335 351 9 94 155 309 325 333 329
186 187 188 182 182 180 176 170 164 168 164 154 147 146 151 157 150 144 140 334 344 29 139 145 150 158 162 172 183 187 355 293 255 247 218 179 280 307 288 277 304 311 308
187 187 186 184 184 181 178 173 169 171 168 158 156 159 161 161 165 176 170 158 128 125 169 159 172 185 199 207 201 208 252 254 254 252 243 222 218 211 200 222 275 295 300
191 192 192 188 186 184 180 175 173 173 169 163 167 166 162 155 158 163 164 171 183 189 183 178 190 205 219 225 210 216 242 232 239 253 249 245 249 222 203 203 226 302 309
194 194 192 189 187 184 181 178 174 172 171 171 169 170 168 165 172 177 172 174 181 181 172 179 197 223 231 235 227 233 247 249 247 249 247 242 251 246 232 210 188 195 270
196 194 190 188 186 182 178 172 171 170 172 171 174 175 178 180 180 178 182 188 199 191 187 208 224 238 244 244 232 238 244 245 252 243 246 250 249 254 250 234 213 189 200
196 191 188 183 176 170 168 168 169 165 168 172 172 168 178 181 179 184 197 198 201 200 206 221 232 239 245 246 234 237 241 241 252 254 245 251 251 250 254 248 238 225 199
193 186 179 171 167 169 171 172 171 171 175 173 171 175 180 179 181 192 202 200 203 209 213 219 226 235 239 238 232 241 241 235 242 248 245 251 253 250 247 242 243 241 224
182 173 171 171 172 173 174 175 175 178 178 172 173 178 184 187 195 203 207 205 205 213 219 218 226 234 237 237 237 237 241 238 237 237 236 245 245 250 247 242 242 243 247
175 170 173 176 177 176 176 177 181 181 178 174 176 185 194 197 201 204 205 206 206 211 220 225 229 232 234 237 242 240 239 241 244 241 238 241 237 240 243 244 241 239 245
173 174 176 179 178 178 181 181 184 184 180 176 183 196 200 199 199 202 206 209 211 216 217 222 229 232 231 231 228 227 229 232 244 250 248 248 249 247 242 240 234 230 231
179 179 178 178 181 184 185 185 188 186 178 182 192 194 193 196 200 204 208 211 217 221 217 219 225 231 235 232 221 215 222 226 234 248 256 261 264 264 264 260 251 228 222
183 183 184 185 187 188 185 187 190 182 180 187 191 190 191 198 204 206 206 212 217 217 219 224 224 231 240 243 239 234 221 225 233 238 248 262 265 267 261 267 270 260 245
186 190 192 195 195 190 187 186 180 179 185 190 193 193 193 201 205 206 211 215 211 211 218 224 227 233 244 244 243 241 228 228 236 236 237 244 260 265 256 256 260 255 254
187 191 194 192 191 192 189 178 183 185 189 196 199 199 196 200 204 210 216 213 209 217 219 221 225 233 248 248 244 237 220 230 242 242 240 239 250 261 264 255 252 259 263
213 192 183 176 191 200 179 175 188 190 201 204 203 200 198 201 207 213 213 210 208 219 223 231 230 232 243 247 243 232 211 230 244 248 246 244 247 256 265 241 235 250 258
22 61 129 169 206 191 168 185 193 207 212 202 198 201 203 208 211 212 211 210 214 222 228 238 241 237 241 251 249 234 207 221 234 241 245 244 245 252 256 241 226 240 251
27 31 48 12 332 152 163 184 209 220 202 189 198 209 212 214 212 212 220 216 215 226 236 242 254 249 245 245 249 241 225 218 220 233 238 239 245 249 251 246 244 252 259
29 26 39 33 24 26 115 202 241 213 188 200 214 220 218 217 212 209 219 223 221 228 240 239 249 255 248 246 245 245 238 226 220 233 237 240 248 252 255 253 254 255 246
28 28 41 40 26 20 31 21 14 49 122 209 234 238 233 238 234 226 222 226 232 236 242 243 247 251 249 243 239 235 234 229 226 236 247 253 257 254 252 258 259 244 231
31 36 40 37 25 25 28 23 35 52 44 8 331 307 280 264 260 254 244 241 240 236 236 241 239 239 244 240 222 210 211 203 205 193 226 247 254 256 255 254 252 246 238
37 40 40 38 28 29 29 21 26 46 46 12 342 317 300 289 280 277 280 263 255 258 249 246 243 242 239 241 228 222 215 199 175 164 218 239 244 249 254 256 257 248 241